Regional Weather Roundup
Issued by NWS

Home | Current Version | Previous Version | Text Only | Print | Product List | Glossary On
Versions: 1 2 3 4 5 6 7 8 9 10 11 12 13 14 15 16 17 18 19 20 21 22 23 24 25 26 27
000
ASCA42 TJSJ 011010
RWRPR
PUERTO RICO/U.S. VIRGIN ISLANDS HOURLY WEATHER ROUNDUP
NATIONAL WEATHER SERVICE SAN JUAN PR
600 AM AST SUN MAY 01 2016

PRZ001-004-011100-
PUERTO RICO

CITY           SKY/WX    TMP DP  RH WIND       PRES   REMARKS
SAN JUAN LMM   PTCLDY    73  72  94 E5        29.92R
CEIBA          PTCLDY    72  72 100 CALM      29.94R
$$

PRZ006-007-011100-
U.S. VIRGIN ISLANDS

CITY           SKY/WX    TMP DP  RH WIND       PRES   REMARKS
CHARLOTTE AMA  MOCLDY    81  73  78 E9        29.92R
CHRISTIANSTED  PTCLDY    72  70  94 N6        29.92R
$$

HOURLY WEATHER ROUNDUP FOR THE NEWS MEDIA

CITY           SKY/WX    TMP DP  RH WIND       PRES   REMARKS
ORLANDO        CLEAR     71  67  87 E3        30.01S
NEW YORK       CLOUDY    49  38  65 E7        30.22R
NEWARK         CLOUDY    50  38  63 SE5       30.19S
CHICAGO        CLOUDY    44  43  96 NE14      29.91F FOG
HARTFORD       CLOUDY    38  35  89 CALM      30.25R
BOSTON         CLOUDY    44  35  70 S5        30.24S
DALLAS         PTCLDY    62  56  80 NE9       29.90R
PHILADELPHIA   LGT RAIN  49  42  77 E5        30.19S
LOS ANGELES    PTCLDY    57  50  77 CALM      29.85S
WASHINGTON DC  LGT RAIN  51  49  92 S9        30.10F



USA.gov is the U.S. government's official web portal to all federal, state and local government web resources and services.